[[{"header":{"parameterUnit":"m.s-1","parameterCategory":1,"la1":30.2992,"la2":30.254,"lo1":-89.0895,"lo2":-89.0443,"dy":0.0025,"dx":0.0025,"nx":19,"ny":19,"refTime":"2026-04-11T21:00:00:Z","depth":0,"parameterNumber":2,"parameterNumberName":"U-component_of_WINDS"},"data":[0,0,0,-2.291,-2.2912,-2.2992,-2.2992,-2.3098,-2.3099,0,0,0,0,0,0,0,0,0,0,0,-2.2888,-2.2889,-2.291,-2.2912,-2.2992,-2.2992,-2.3097,-2.3099,0,0,0,0,0,0,0,0,0,0,0,-2.2887,-2.2888,-2.2889,-2.2912,-2.2992,-2.2992,-2.3097,-2.3036,0,0,0,0,0,0,0,0,0,0,-2.2957,-2.2938,-2.2888,-2.2889,-2.2913,-2.2992,-2.2992,-2.3033,-2.304,-2.3062,0,-2.3083,0,-2.3092,-2.3106,-2.3106,0,0,0,-2.2911,-2.2933,-2.2953,-2.2889,-2.2914,-2.2992,-2.2956,-2.3037,-2.3044,-2.3071,-2.3084,-2.3088,-2.3094,-2.3106,-2.3107,-2.3243,-2.3243,0,0,-2.2906,-2.2903,-2.2948,-2.2958,-2.2946,-2.2953,-2.2958,-2.3041,-2.3055,-2.3085,-2.3091,-2.3096,-2.3107,-2.3108,-2.3242,-2.3243,0,0,0,-2.2894,-2.29,-2.2918,-2.2954,-2.2968,-2.2955,-2.2961,-2.3051,-2.3058,-2.3092,-2.3097,-2.3108,-2.3109,-2.3241,-2.3242,-2.3273,0,0,0,-2.2892,-2.2893,-2.2916,-2.2915,-2.2967,-2.3011,-2.297,-2.3052,-2.3061,-2.3097,-2.3108,-2.311,-2.324,-2.3242,-2.327,-2.3287,0,0,0,-2.2882,-2.2892,-2.2904,-2.2915,-2.2949,-2.3009,-2.302,-2.3054,-2.3065,-2.3106,-2.311,-2.324,-2.3242,-2.3268,-2.3284,-2.3322,0,0,0,-2.2871,-2.293,-2.2904,-2.2973,-2.2948,-2.3028,-2.302,-2.3079,-2.3119,-2.3108,-2.3241,-2.3242,-2.3267,-2.3281,-2.3319,-2.3353,-2.3366,0,0,-2.2943,-2.2938,-2.2979,-2.2958,-2.3042,-2.3016,-2.3104,-2.3143,-2.315,-2.3211,-2.3215,-2.3271,-2.3283,-2.3321,-2.3446,-2.3457,0,0,0,-2.3,-2.3029,-2.3052,-2.309,-2.3121,-2.315,-2.3176,-2.3191,-2.3243,-2.3181,-2.3296,-2.3303,-2.3325,-2.3341,-2.3351,-2.337,-2.325,-2.3249,-2.3249,-2.3097,-2.3104,-2.3171,-2.3187,-2.3224,-2.3251,-2.3281,-2.3305,-2.3301,-2.3328,-2.3346,-2.3421,-2.3439,-2.3446,-2.3466,-2.3365,-2.3365,-2.3365,-2.3365,-2.3204,-2.3245,-2.3239,-2.3302,-2.3308,-2.3361,-2.339,-2.3385,-2.3436,-2.3407,-2.3427,-2.3395,-2.3458,-2.3476,-2.3367,-2.3367,-2.3366,-2.3366,-2.3366,-2.3267,-2.3288,-2.3306,-2.3361,-2.3403,-2.3417,-2.3466,-2.3471,-2.3475,-2.3495,-2.3514,-2.3514,-2.3513,-2.3504,-2.3504,-2.3505,-2.3505,-2.3505,-2.3505,-2.3326,-2.3344,-2.3385,-2.3424,-2.3449,-2.3483,-2.3511,-2.3536,-2.3564,-2.3564,-2.3564,-2.3556,-2.3463,-2.3439,-2.3509,-2.3509,-2.3508,-2.3508,-2.3507,-2.343,-2.3407,-2.347,-2.3495,-2.3542,-2.3583,-2.3589,-2.3639,-2.366,-2.3684,-2.3673,-2.3604,-2.3599,-2.3591,-2.3572,-2.3672,-2.3672,-2.3672,-2.3672,-2.3483,-2.3481,-2.3546,-2.3586,-2.3626,-2.3637,-2.3708,-2.3731,-2.3752,-2.3765,-2.3752,-2.3726,-2.3719,-2.3718,-2.3708,-2.369,-2.3818,-2.3818,-2.3818,-2.3547,-2.3549,-2.3608,-2.3628,-2.3666,-2.3698,-2.3764,-2.3811,-2.3829,-2.3824,-2.3776,-2.377,-2.3729,-2.3715,-2.3707,-2.3691,-2.3658,0,0]},{"header":{"parameterUnit":"m.s-1","parameterCategory":1,"la1":30.2992,"la2":30.254,"lo1":-89.0895,"lo2":-89.0443,"dy":0.0025,"dx":0.0025,"nx":19,"ny":19,"refTime":"2026-04-11T21:00:00:Z","depth":0,"parameterNumber":3,"parameterNumberName":"V-component_of_WINDS"},"data":[0,0,0,1.5084,1.5083,1.5052,1.5052,1.5024,1.5024,0,0,0,0,0,0,0,0,0,0,0,1.5101,1.5101,1.5084,1.5083,1.5053,1.5052,1.5024,1.5024,0,0,0,0,0,0,0,0,0,0,0,1.5101,1.5101,1.5101,1.5083,1.5053,1.5052,1.5024,1.5043,0,0,0,0,0,0,0,0,0,0,1.5071,1.5094,1.5101,1.5101,1.5083,1.5053,1.5052,1.5044,1.5042,1.5043,0,1.5047,0,1.5035,1.5023,1.5023,0,0,0,1.5077,1.5096,1.5081,1.5101,1.5083,1.5053,1.5065,1.5043,1.504,1.5041,1.5046,1.5045,1.5035,1.5023,1.5022,1.5053,1.5053,0,0,1.5079,1.5099,1.5082,1.508,1.5087,1.5066,1.5064,1.5041,1.5048,1.5046,1.5044,1.5034,1.5022,1.5022,1.5052,1.5053,0,0,0,1.5088,1.51,1.5085,1.5081,1.5075,1.5065,1.5063,1.5049,1.5043,1.5044,1.5034,1.5022,1.5022,1.5052,1.5053,1.5094,0,0,0,1.5089,1.5106,1.5087,1.5099,1.5076,1.5062,1.5072,1.5045,1.5041,1.5034,1.5022,1.5022,1.5051,1.5052,1.5092,1.511,0,0,0,1.51,1.5107,1.5105,1.51,1.5087,1.5062,1.5054,1.5043,1.5036,1.5023,1.5022,1.5051,1.5052,1.509,1.5107,1.5124,0,0,0,1.5117,1.5141,1.5106,1.5129,1.5088,1.5088,1.5054,1.5053,1.5047,1.5022,1.5051,1.5052,1.5089,1.5105,1.5122,1.5143,1.5154,0,0,1.5159,1.5147,1.5159,1.5127,1.5139,1.5091,1.5109,1.5084,1.5063,1.5057,1.5058,1.5093,1.5107,1.5124,1.5205,1.5214,0,0,0,1.5179,1.5188,1.5187,1.5183,1.5165,1.5151,1.5121,1.5112,1.5106,1.5065,1.5103,1.5111,1.512,1.5129,1.5136,1.5143,1.5057,1.5057,1.5057,1.5266,1.524,1.5258,1.5229,1.5225,1.5195,1.5189,1.5171,1.5145,1.5154,1.5152,1.5205,1.5216,1.5221,1.5229,1.5161,1.5161,1.5161,1.5161,1.5324,1.5333,1.5299,1.5304,1.5276,1.528,1.5252,1.5233,1.5232,1.5204,1.5211,1.5182,1.5232,1.5237,1.5164,1.5164,1.5163,1.5163,1.5163,1.5378,1.5378,1.5367,1.5359,1.5356,1.5325,1.5326,1.53,1.5276,1.5283,1.5278,1.5277,1.5273,1.5282,1.5282,1.5283,1.5283,1.5283,1.5283,1.5439,1.5425,1.543,1.5414,1.5409,1.5398,1.5368,1.5362,1.5348,1.5329,1.5328,1.5301,1.5241,1.5227,1.5286,1.5285,1.5285,1.5285,1.5284,1.5508,1.5488,1.5496,1.5491,1.547,1.5469,1.5436,1.5425,1.5416,1.5417,1.5389,1.5349,1.5334,1.5328,1.5316,1.5395,1.5394,1.5395,1.5395,1.5553,1.5544,1.5547,1.554,1.553,1.5502,1.5511,1.5488,1.5461,1.5454,1.5439,1.542,1.5415,1.5404,1.5396,1.5384,1.5478,1.5478,1.5478,1.5595,1.5583,1.5596,1.5571,1.5553,1.5539,1.5546,1.5539,1.5504,1.5481,1.5447,1.5444,1.5414,1.5406,1.5382,1.537,1.5348,0,0]}]]